Tracking 25195 objects as of 21-Jan-2022
HD Live streaming from Space Station
objects crossing your sky now

CHINASAT 5A (CHINASTAR1)

Track CHINASAT 5A (CHINASTAR1) now!
CHINASAT 5A (CHINASTAR1) is classified as:


NORAD ID: 25354
Int'l Code: 1998-033A
Perigee: 36,153.5 km
Apogee: 36,157.2 km
Inclination: 5.0 °
Period: 1,454.6 minutes
Semi major axis: 42526 km
RCS: 0.003 m2 (small)
Launch date: May 30, 1998
Source: People's Republic of China (PRC)
Launch site: Xichang Space Center, China (XSC)

24 C-band, 24 Ku-band; voice and video communications throughout China and neighboring countries.
aabbcc
Your satellite tracking list
Your tracking list is empty




NASA's NSSDC Master Catalog

Two Line Element Set (TLE):
1 25354U 98033A   22020.65591839 -.00000109  00000-0  00000+0 0  9994
2 25354   5.0279  76.5195 0000439  35.0372  72.1521  0.98995670 90946
Source of the keplerian elements: AFSPC